Regional Weather Roundup
Issued by NWS

Home | Current Version | Previous Version | Graphics & Text | Print | Product List | Glossary On
Versions: 1 2 3 4 5 6 7 8 9 10 11 12 13 14 15 16 17 18 19 20 21 22 23 24 25 26 27 28 29 30 31 32 33 34 35 36 37 38 39 40 41 42 43 44 45 46 47 48 49 50
000
ASUS45 KSLC 291610
RWRUT

UTAH REGIONAL WEATHER ROUNDUP
NATIONAL WEATHER SERVICE SALT LAKE CITY UT
1000 AM MDT FRI AUG 29 2014

UTZ001>011-023>025-291700-

NORTHERN UTAH

CITY           SKY/WX    TMP DP  RH WIND       PRES   REMARKS
HILL AFB       SUNNY     65  46  48 E17       30.13S
LOGAN          SUNNY     64  52  64 N5        30.12S
OGDEN          SUNNY     70  45  40 S3        30.11S
PROVO AIRPORT  PTSUNNY   66  48  52 S6        30.16S
SALT LAKE CITY MOSUNNY   72  48  42 S10       30.10S
VERNAL         SUNNY     64  52  64 CALM      30.20F
WENDOVER       SUNNY     72  39  30 E7        30.09S
HEBER CITY     SUNNY     55  45  67 CALM      30.24S
WEST JORDAN    SUNNY     73  55  53 S13       30.13S

$$

UTZ012>022-026-027-291700-

SOUTHERN UTAH

CITY           SKY/WX    TMP DP  RH WIND       PRES   REMARKS
BRYCE CANYON   SUNNY     62  42  47 N3        30.35S
CEDAR CITY     SUNNY     70  41  34 N3        30.19S
MILFORD        SUNNY     70  39  32 S12       30.15S
MOAB/CYNLANDS  SUNNY     73  49  42 E7        30.14S
PRICE          SUNNY     68  43  40 SW3       30.23S
ST GEORGE      SUNNY     75  45  33 CALM      30.05S

$$

REGIONAL REPORTS     COLORADO/ARIZONA

CITY           SKY/WX    TMP DP  RH WIND       PRES   REMARKS
CRAIG, CO      SUNNY     64  49  57 NE3       30.25S
GRAND JUNCTION SUNNY     67  51  56 SE8       30.19S
RIFLE          SUNNY     63  49  60 CALM      30.24F
MONTROSE       CLOUDY    62  49  62 CALM      30.27S
CORTEZ         SUNNY     64  43  46 CALM      30.25R
PAGE, AZ       SUNNY     75  44  33 VRB5      30.13R
GRAND CANYON   SUNNY     72  39  30 CALM      30.29S
KINGMAN        SUNNY     84  41  21 N3        30.04S
FLAGSTAFF      SUNNY     68  41  37 CALM      30.30S

$$

REGIONAL REPORTS    NEVADA/IDAHO/WYOMING

CITY           SKY/WX    TMP DP  RH WIND       PRES   REMARKS
LAS VEGAS, NV  SUNNY     89  35  14 S5        29.91R
ELY            MOSUNNY   70  42  36 S6        30.21F
ELKO           SUNNY     65  38  36 CALM      30.13F
POCATELLO, ID  SUNNY     70  50  49 NW5       30.10S
BURLEY         SUNNY     66  50  56 CALM      30.07S
EVANSTON, WY   SUNNY     61  41  47 SW9       30.28F
ROCK SPRINGS   MOSUNNY   63  40  42 W8        30.26R

$$


USA.gov is the U.S. government's official web portal to all federal, state and local government web resources and services.